Regional Weather Roundup
Issued by NWS

Home | Current Version | Previous Version | Text Only | Print | Product List | Glossary Off
Versions: 1 2 3 4 5 6 7 8 9 10 11 12 13 14 15 16 17 18 19 20 21 22 23 24 25 26 27 28 29 30 31 32 33 34 35 36 37 38 39 40 41 42 43 44 45 46 47 48 49 50

000
ASUS43 KLOT 201558
RWRIL

ILLINOIS REGIONAL WEATHER ROUNDUP
NATIONAL WEATHER SERVICE CHICAGO/ROMEOVILLE IL
1100 AM CDT MON OCT 20 2014

NOTE: "FAIR" INDICATES FEW OR NO CLOUDS BELOW 12,000 FEET WITH NO
SIGNIFICANT WEATHER AND/OR OBSTRUCTIONS TO VISIBILITY.

* THESE STATIONS ARE NOT UNDER NWS QUALITY CONTROL. THEY ALSO MAY NOT
  REPORT WEATHER SUCH AS PRECIPITATION OR FOG.

ILZ001-002-007-009-015-016-024-201700-
NORTHWEST ILLINOIS

CITY           SKY/WX    TMP DP  RH WIND       PRES   REMARKS
MOLINE         SUNNY     60  45  57 NW13      29.94S
$$

ILZ003-004-008-010-011-017-018-201700-
NORTH CENTRAL ILLINOIS

CITY           SKY/WX    TMP DP  RH WIND       PRES   REMARKS
ROCKFORD       NOT AVBL
$$

ILZ005-006-012>014-019>023-201700-
NORTHEAST ILLINOIS

CITY           SKY/WX    TMP DP  RH WIND       PRES   REMARKS
CHICAGO-OHARE  MOSUNNY   58  46  64 NW12      29.85R
CHICAGO-MIDWAY NOT AVBL
AURORA         SUNNY     59  47  64 NW13      29.87R
WAUKEGAN       NOT AVBL
DUPAGE AIRPORT MOSUNNY   60  47  61 NW13      29.86R
WHEELING       PTSUNNY   59  47  64 N9        29.85S
NORTHERLY ISL    N/A     58  46  64 NW6         N/A
$$

LMZ740>746-201700-
SOUTHERN LAKE MICHIGAN

STATION/POSITION SKY/WX   TEMP    WIND        PRES    VSBY  WAVE
                          AIR SEA DIR/SP/G                  HT/PER
                          (F)     (DEG/KT/KT) (MB)    (MI)  (FT/S)
SOUTHERN BUOY              53 55  300/ 10/ 12 1010.2R         3/ 5
WAUKEGAN HARBOR            54     310/ 10/ 15   N/A
HARRISON CRIB              53     290/  9/ 11   N/A
BURNHAM HARBOR             56     290/  4/ 11   N/A
CALUMET HARBOR             57     260/  3/  5 1009.4R
MICHIGAN CITY              52     220/ 12/ 13   N/A
$$

ILZ025>027-034>036-040-047-049-050-058-095>099-201700-
WEST-CENTRAL ILLINOIS

CITY           SKY/WX    TMP DP  RH WIND       PRES   REMARKS
$$

ILZ028>032-037-038-041>044-048-051>054-059>061-201700-
CENTRAL ILLINOIS

CITY           SKY/WX    TMP DP  RH WIND       PRES   REMARKS
PEORIA         NOT AVBL
SPRINGFIELD    SUNNY     66  48  52 NW10      29.95F
TAYLORVILLE    NOT AVBL
$$

ILZ033-039-045-046-055>057-062-063-201700-
EAST-CENTRAL ILLINOIS

CITY           SKY/WX    TMP DP  RH WIND       PRES   REMARKS
MATTOON        SUNNY     63  51  65 W13       29.92S
$$

ILZ079-100>102-201700-
SOUTHWEST ILLINOIS

CITY           SKY/WX    TMP DP  RH WIND       PRES   REMARKS
$$

ILZ064>066-069>071-074>076-080>082-084>086-088>090-092>094-201700-
SOUTH-CENTRAL ILLINOIS

CITY           SKY/WX    TMP DP  RH WIND       PRES   REMARKS
CARBONDALE     PTSUNNY   64  51  62 SW10      30.00F
MARION         MOSUNNY   63  52  67 SW12      30.00F
$$

ILZ067-068-072-073-078-083-087-091-201700-
SOUTHEAST ILLINOIS

CITY           SKY/WX    TMP DP  RH WIND       PRES   REMARKS
LAWRENCEVILLE  MOSUNNY   62  50  64 SW16      29.95F
$$

ABBREVIATIONS USED IN REMARKS
   TC - TEMPERATURE IN CELSIUS
  WCI - WIND CHILL INDEX
   HX - HEAT INDEX
  VSB - VISIBILITY
$$




USA.gov is the U.S. government's official web portal to all federal, state and local government web resources and services.